User: anonymous   Login
Location: Unspecified
(32.8880°N, 0.0000°E)
Time: 10:44:27
(UTC+00:00)
Language:

Cosmos 1656 Rocket - Orbit

View from above orbital plane
View from above orbital plane
View from above satellite
View from above satellite

Ground track
Ground track

The orbit is defined by the following mean orbital elements,

1 15772U          26088.18636141 +.00000000 +00000-0 +46785-4 0 00003
2 15772  71.1087  46.5348 0032838  95.8339 358.3060 14.21988013    01
Epoch (UTC): 29 March 2026 04:28:21
Eccentricity: 0.0032838
inclination: 71.1087°
perigee height: 795 km
apogee height: 842 km
right ascension of ascending node: 46.5348°
argument of perigee: 95.8339°
revolutions per day: 14.21988013
mean anomaly at epoch: 358.3060°

The dashed part of the orbit path shows where the satellite is in the earth's shadow,  

DLR